,,PA_Meas_PMT16A,,PR_Meas_QMR101_102,,RH_Meas_QMH101,,SR_Meas_QMS101,,TA_Meas_QMH101,,GenWind,,GenWind,
time,status,PA,status,PR,status,RH,status,SR,status,TA,status,DirAvg,status,SpdAvg,
2010-02-23, 00:00:04,VALID,919.11,VALID,0,VALID,97.6712,VALID,0.107441,VALID,19.2738,VALID,152,VALID,0.599609,
2010-02-23, 00:01:04,VALID,919.136,VALID,0,VALID,97.6941,VALID,0.107441,VALID,19.2933,VALID,152,VALID,0.846484,
2010-02-23, 00:02:04,VALID,919.077,VALID,0,VALID,97.6712,VALID,0,VALID,19.2933,VALID,152,VALID,0.70625,
2010-02-23, 00:03:04,VALID,919.086,VALID,0,VALID,97.7093,VALID,0.107441,VALID,19.2723,VALID,144,VALID,0.471484,
2010-02-23, 00:04:04,VALID,919.082,VALID,0,VALID,97.6712,VALID,0.107441,VALID,19.2918,VALID,144,VALID,0.836328,
2010-02-23, 00:05:04,VALID,919.09,VALID,0,VALID,97.6788,VALID,0.107441,VALID,19.3128,VALID,144,VALID,0.548437,
2010-02-23, 00:06:04,VALID,919.082,VALID,0,VALID,97.7017,VALID,0.107441,VALID,19.2918,VALID,144,VALID,0.928125,
2010-02-23, 00:07:04,VALID,919.105,VALID,0,VALID,97.6788,VALID,0.107441,VALID,19.3128,VALID,144,VALID,0.825,
2010-02-23, 00:08:04,VALID,919.086,VALID,0,VALID,97.6941,VALID,0,VALID,19.3113,VALID,144,VALID,0.468359,
2010-02-23, 00:09:04,VALID,919.136,VALID,0,VALID,97.6636,VALID,0.107441,VALID,19.3323,VALID,144,VALID,0.560938,
2010-02-23, 00:10:04,VALID,919.147,VALID,0,VALID,97.6788,VALID,0.107441,VALID,19.3113,VALID,144,VALID,0.601563,
2010-02-23, 00:11:04,VALID,919.196,VALID,0,VALID,97.656,VALID,0.107441,VALID,19.2918,VALID,144,VALID,0.577344,
2010-02-23, 00:12:04,VALID,919.2,VALID,0,VALID,97.6483,VALID,0.107441,VALID,19.3323,VALID,144,VALID,0.389062,
2010-02-23, 00:13:04,VALID,919.202,VALID,0,VALID,97.656,VALID,0,VALID,19.2918,VALID,144,VALID,0.942969,
2010-02-23, 00:14:04,VALID,919.205,VALID,0,VALID,97.6331,VALID,0,VALID,19.3323,VALID,144,VALID,0.375781,
2010-02-23, 00:15:04,VALID,919.206,VALID,0,VALID,97.656,VALID,0.107441,VALID,19.2918,VALID,144,VALID,0.835547,
2010-02-23, 00:16:04,VALID,919.225,VALID,0,VALID,97.6255,VALID,0.107441,VALID,19.2933,VALID,144,VALID,0.667188,
2010-02-23, 00:17:04,VALID,919.202,VALID,0,VALID,97.6102,VALID,0,VALID,19.2543,VALID,144,VALID,0.801562,
2010-02-23, 00:18:04,VALID,919.236,VALID,0,VALID,97.6026,VALID,0,VALID,19.2738,VALID,115,VALID,1.10938,
2010-02-23, 00:19:04,VALID,919.244,VALID,0,VALID,97.595,VALID,0,VALID,19.2948,VALID,130,VALID,1.02813,
2010-02-23, 00:20:04,VALID,919.254,VALID,0,VALID,97.6026,VALID,0,VALID,19.2948,VALID,136,VALID,0.828906,
2010-02-23, 00:21:04,VALID,919.277,VALID,0,VALID,97.595,VALID,0,VALID,19.2948,VALID,135,VALID,0.880859,
2010-02-23, 00:22:04,VALID,919.285,VALID,0,VALID,97.5721,VALID,0,VALID,19.2738,VALID,135,VALID,0.845703,
2010-02-23, 00:23:04,VALID,919.324,VALID,0,VALID,97.5721,VALID,0,VALID,19.2753,VALID,135,VALID,0.843359,
2010-02-23, 00:24:04,VALID,919.305,VALID,0,VALID,97.5492,VALID,0,VALID,19.2738,VALID,119,VALID,1.30977,
2010-02-23, 00:25:04,VALID,919.301,VALID,0,VALID,97.5264,VALID,0,VALID,19.2948,VALID,98,VALID,1.14531,
2010-02-23, 00:26:04,VALID,919.303,VALID,0,VALID,97.534,VALID,0,VALID,19.2948,VALID,122,VALID,1.26602,
2010-02-23, 00:27:04,VALID,919.313,VALID,0,VALID,97.5035,VALID,0,VALID,19.3143,VALID,135,VALID,0.797266,
2010-02-23, 00:28:04,VALID,919.257,VALID,0,VALID,97.5035,VALID,0,VALID,19.3143,VALID,135,VALID,1.25312,
2010-02-23, 00:29:04,VALID,919.254,VALID,0,VALID,97.4806,VALID,0,VALID,19.3338,VALID,135,VALID,0.745703,
2010-02-23, 00:30:04,VALID,919.229,VALID,0,VALID,97.4577,VALID,0,VALID,19.3143,VALID,135,VALID,0.816406,
2010-02-23, 00:31:04,VALID,919.214,VALID,0,VALID,97.3968,VALID,0,VALID,19.3143,VALID,135,VALID,0.719922,
2010-02-23, 00:32:04,VALID,919.199,VALID,0,VALID,97.4425,VALID,0,VALID,19.3128,VALID,135,VALID,0.832422,
2010-02-23, 00:33:04,VALID,919.168,VALID,0,VALID,97.4654,VALID,0.107441,VALID,19.2933,VALID,120,VALID,1.05391,
2010-02-23, 00:34:04,VALID,919.161,VALID,0,VALID,97.4501,VALID,0.107441,VALID,19.2918,VALID,108,VALID,0.734375,
2010-02-23, 00:35:04,VALID,919.152,VALID,0,VALID,97.4577,VALID,0.107441,VALID,19.2723,VALID,108,VALID,0.999609,
2010-02-23, 00:36:04,VALID,919.142,VALID,0,VALID,97.4577,VALID,0,VALID,19.2933,VALID,108,VALID,0.985547,
2010-02-23, 00:37:04,VALID,919.119,VALID,0,VALID,97.4654,VALID,0,VALID,19.3113,VALID,108,VALID,1.49727,
2010-02-23, 00:38:04,VALID,919.122,VALID,0,VALID,97.4577,VALID,0,VALID,19.3323,VALID,108,VALID,1.23516,
2010-02-23, 00:39:04,VALID,919.145,VALID,0,VALID,97.4425,VALID,0,VALID,19.3518,VALID,134,VALID,1.30781,
2010-02-23, 00:40:04,VALID,919.165,VALID,0,VALID,97.4425,VALID,0,VALID,19.3503,VALID,120,VALID,1.40625,
2010-02-23, 00:41:04,VALID,919.16,VALID,0,VALID,97.4425,VALID,0.107441,VALID,19.3698,VALID,139,VALID,1.45703,
2010-02-23, 00:42:04,VALID,919.163,VALID,0,VALID,97.4425,VALID,0,VALID,19.3908,VALID,123,VALID,1.50391,
2010-02-23, 00:43:04,VALID,919.188,VALID,0,VALID,97.4196,VALID,0,VALID,19.3698,VALID,107,VALID,1.31562,
2010-02-23, 00:44:04,VALID,919.16,VALID,0,VALID,97.412,VALID,0,VALID,19.3908,VALID,107,VALID,0.880469,
2010-02-23, 00:45:04,VALID,919.146,VALID,0,VALID,97.3968,VALID,0,VALID,19.3908,VALID,107,VALID,1.29297,
2010-02-23, 00:46:04,VALID,919.113,VALID,0,VALID,97.3968,VALID,0.107441,VALID,19.3698,VALID,107,VALID,1.01563,
2010-02-23, 00:47:04,VALID,919.09,VALID,0,VALID,97.3815,VALID,0,VALID,19.3713,VALID,107,VALID,0.989062,
2010-02-23, 00:48:04,VALID,919.079,VALID,0,VALID,97.3815,VALID,0,VALID,19.3923,VALID,121,VALID,1.35703,
2010-02-23, 00:49:04,VALID,919.024,VALID,0,VALID,97.3739,VALID,0,VALID,19.3923,VALID,141,VALID,1.35703,
2010-02-23, 00:50:04,VALID,919.021,VALID,0,VALID,97.3891,VALID,0,VALID,19.3728,VALID,137,VALID,1.44727,
2010-02-23, 00:51:04,VALID,919.016,VALID,0,VALID,97.3968,VALID,0,VALID,19.3713,VALID,133,VALID,1.38828,
2010-02-23, 00:52:04,VALID,919.007,VALID,0,VALID,97.3815,VALID,0,VALID,19.3518,VALID,131,VALID,1.10547,
2010-02-23, 00:53:04,VALID,918.992,VALID,0,VALID,97.3739,VALID,0,VALID,19.3518,VALID,130,VALID,1.60195,
2010-02-23, 00:54:04,VALID,919.007,VALID,0,VALID,97.4196,VALID,0,VALID,19.3518,VALID,128,VALID,1.17891,
2010-02-23, 00:55:04,VALID,918.971,VALID,0,VALID,97.412,VALID,0,VALID,19.3533,VALID,111,VALID,1.53242,
2010-02-23, 00:56:04,VALID,918.957,VALID,0,VALID,97.4044,VALID,0,VALID,19.3533,VALID,113,VALID,1.49688,
2010-02-23, 00:57:04,VALID,918.942,VALID,0,VALID,97.4349,VALID,0,VALID,19.3518,VALID,106,VALID,0.947266,
2010-02-23, 00:58:04,VALID,918.923,VALID,0,VALID,97.4273,VALID,0,VALID,19.3323,VALID,106,VALID,1.15781,
2010-02-23, 00:59:04,VALID,918.902,VALID,0,VALID,97.4196,VALID,0.107441,VALID,19.3323,VALID,106,VALID,0.759375,
2010-02-23, 01:00:04,VALID,918.838,VALID,0,VALID,97.4044,VALID,0,VALID,19.3128,VALID,106,VALID,0.960156,
2010-02-23, 01:01:04,VALID,918.849,VALID,0,VALID,97.412,VALID,0,VALID,19.3128,VALID,106,VALID,1.36016,
2010-02-23, 01:02:04,VALID,918.813,VALID,0,VALID,97.3968,VALID,0,VALID,19.3128,VALID,106,VALID,0.948047,
2010-02-23, 01:03:04,VALID,918.76,VALID,0,VALID,97.351,VALID,0,VALID,19.3128,VALID,106,VALID,1.04531,
2010-02-23, 01:04:04,VALID,918.75,VALID,0,VALID,97.3586,VALID,0,VALID,19.3128,VALID,106,VALID,0.7375,
2010-02-23, 01:05:04,VALID,918.728,VALID,0,VALID,97.3129,VALID,0,VALID,19.2933,VALID,106,VALID,1.10391,
2010-02-23, 01:06:04,VALID,918.72,VALID,0,VALID,97.2748,VALID,0,VALID,19.3338,VALID,106,VALID,1.01484,
2010-02-23, 01:07:04,VALID,918.731,VALID,0,VALID,97.2519,VALID,0,VALID,19.3323,VALID,106,VALID,1.4332,
2010-02-23, 01:08:04,VALID,918.714,VALID,0,VALID,97.1986,VALID,0,VALID,19.3323,VALID,106,VALID,1.03281,
2010-02-23, 01:09:04,VALID,918.713,VALID,0,VALID,97.1528,VALID,0,VALID,19.3323,VALID,126,VALID,1.13281,
2010-02-23, 01:10:04,VALID,918.698,VALID,0,VALID,97.1376,VALID,0,VALID,19.3518,VALID,120,VALID,0.890234,
2010-02-23, 01:11:04,VALID,918.684,VALID,0,VALID,97.0918,VALID,0,VALID,19.3713,VALID,120,VALID,0.848437,
2010-02-23, 01:12:04,VALID,918.643,VALID,0,VALID,97.0613,VALID,0,VALID,19.3908,VALID,120,VALID,0.701953,
2010-02-23, 01:13:04,VALID,918.62,VALID,0,VALID,97.0613,VALID,0,VALID,19.3923,VALID,120,VALID,0.655469,
2010-02-23, 01:14:04,VALID,918.617,VALID,0,VALID,97.0232,VALID,0,VALID,19.3728,VALID,120,VALID,0.773047,
2010-02-23, 01:15:04,VALID,918.598,VALID,0,VALID,97.0461,VALID,0,VALID,19.3923,VALID,121,VALID,0.559375,
2010-02-23, 01:16:04,VALID,918.58,VALID,0,VALID,97.0613,VALID,0,VALID,19.3728,VALID,121,VALID,1.1043,
2010-02-23, 01:17:04,VALID,918.582,VALID,0,VALID,97.0537,VALID,0.107441,VALID,19.3518,VALID,124,VALID,0.967578,
2010-02-23, 01:18:04,VALID,918.578,VALID,0,VALID,97.0842,VALID,0,VALID,19.3518,VALID,130,VALID,1.25195,
2010-02-23, 01:19:04,VALID,918.566,VALID,0,VALID,97.1223,VALID,0,VALID,19.3128,VALID,137,VALID,1.1832,
2010-02-23, 01:20:04,VALID,918.54,VALID,0,VALID,97.1376,VALID,0,VALID,19.3128,VALID,139,VALID,0.984375,
2010-02-23, 01:21:04,VALID,918.537,VALID,0,VALID,97.1757,VALID,0,VALID,19.2933,VALID,140,VALID,1.21289,
2010-02-23, 01:22:04,VALID,918.564,VALID,0,VALID,97.1833,VALID,0,VALID,19.2933,VALID,149,VALID,1.06211,
2010-02-23, 01:23:04,VALID,918.571,VALID,0,VALID,97.2367,VALID,0,VALID,19.2933,VALID,149,VALID,1.0918,
2010-02-23, 01:24:04,VALID,918.584,VALID,0,VALID,97.2443,VALID,0,VALID,19.3143,VALID,149,VALID,0.730469,
2010-02-23, 01:25:04,VALID,918.542,VALID,0,VALID,97.2367,VALID,0,VALID,19.3143,VALID,149,VALID,0.327344,
2010-02-23, 01:26:04,VALID,918.536,VALID,0,VALID,97.2672,VALID,0,VALID,19.3143,VALID,149,VALID,0.472656,
2010-02-23, 01:27:04,VALID,918.546,VALID,0,VALID,97.29,VALID,0,VALID,19.2933,VALID,149,VALID,0.556641,
2010-02-23, 01:28:04,VALID,918.542,VALID,0,VALID,97.2748,VALID,0,VALID,19.2738,VALID,149,VALID,0.441016,
2010-02-23, 01:29:04,VALID,918.535,VALID,0,VALID,97.2824,VALID,0,VALID,19.3143,VALID,149,VALID,0.298047,
2010-02-23, 01:30:04,VALID,918.51,VALID,0,VALID,97.2824,VALID,0,VALID,19.3143,VALID,149,VALID,0.489453,
2010-02-23, 01:31:04,VALID,918.472,VALID,0,VALID,97.29,VALID,0,VALID,19.3143,VALID,149,VALID,0.758594,
2010-02-23, 01:32:04,VALID,918.473,VALID,0,VALID,97.2824,VALID,0,VALID,19.3143,VALID,149,VALID,0.803906,
2010-02-23, 01:33:04,VALID,918.433,VALID,0,VALID,97.2595,VALID,0,VALID,19.3128,VALID,149,VALID,0.832812,
2010-02-23, 01:34:04,VALID,918.427,VALID,0,VALID,97.2214,VALID,0,VALID,19.2933,VALID,149,VALID,1.03203,
2010-02-23, 01:35:04,VALID,918.399,VALID,0,VALID,97.2138,VALID,0,VALID,19.3128,VALID,149,VALID,0.692578,
2010-02-23, 01:36:04,VALID,918.373,VALID,0,VALID,97.1909,VALID,0,VALID,19.3338,VALID,149,VALID,0.297266,
2010-02-23, 01:37:04,VALID,918.363,VALID,0,VALID,97.1833,VALID,0,VALID,19.3128,VALID,149,VALID,0.00234375,
2010-02-23, 01:38:04,VALID,918.339,VALID,0,VALID,97.1604,VALID,0,VALID,19.3128,VALID,149,VALID,0.309766,
2010-02-23, 01:39:04,VALID,918.328,VALID,0,VALID,97.1147,VALID,0,VALID,19.3338,VALID,149,VALID,0.503125,
2010-02-23, 01:40:04,VALID,918.32,VALID,0,VALID,97.1071,VALID,0,VALID,19.2933,VALID,149,VALID,0.378516,
2010-02-23, 01:41:04,VALID,918.297,VALID,0,VALID,97.1604,VALID,0,VALID,19.2738,VALID,149,VALID,0.229297,
2010-02-23, 01:42:04,VALID,918.274,VALID,0,VALID,97.1223,VALID,0.107441,VALID,19.2738,VALID,149,VALID,0,
2010-02-23, 01:43:04,VALID,918.279,VALID,0,VALID,97.1757,VALID,0,VALID,19.2933,VALID,149,VALID,0,
2010-02-23, 01:44:04,VALID,918.24,VALID,0,VALID,97.1604,VALID,0,VALID,19.2933,VALID,149,VALID,0.1125,
2010-02-23, 01:45:04,VALID,918.235,VALID,0,VALID,97.1757,VALID,0,VALID,19.2738,VALID,149,VALID,0.0015625,
2010-02-23, 01:46:04,VALID,918.19,VALID,0,VALID,97.1757,VALID,0,VALID,19.2543,VALID,149,VALID,0.483984,
2010-02-23, 01:47:04,VALID,918.158,VALID,0,VALID,97.1986,VALID,0,VALID,19.2543,VALID,149,VALID,0.489453,
2010-02-23, 01:48:04,VALID,918.154,VALID,0,VALID,97.2214,VALID,0,VALID,19.2543,VALID,149,VALID,0.548047,
2010-02-23, 01:49:04,VALID,918.164,VALID,0,VALID,97.2138,VALID,0,VALID,19.2543,VALID,149,VALID,0.710156,
2010-02-23, 01:50:04,VALID,918.154,VALID,0,VALID,97.1986,VALID,0,VALID,19.2348,VALID,149,VALID,0.809766,
2010-02-23, 01:51:04,VALID,918.172,VALID,0,VALID,97.1833,VALID,0,VALID,19.2348,VALID,149,VALID,0.930469,
2010-02-23, 01:52:04,VALID,918.148,VALID,0,VALID,97.1681,VALID,0,VALID,19.2348,VALID,149,VALID,1.19961,
2010-02-23, 01:53:04,VALID,918.15,VALID,0,VALID,97.1909,VALID,0,VALID,19.2543,VALID,149,VALID,1.04453,
2010-02-23, 01:54:04,VALID,918.132,VALID,0,VALID,97.1299,VALID,0,VALID,19.2543,VALID,149,VALID,0.988281,
2010-02-23, 01:55:04,VALID,918.113,VALID,0,VALID,97.0994,VALID,0,VALID,19.2738,VALID,149,VALID,0.957422,
2010-02-23, 01:56:04,VALID,918.081,VALID,0,VALID,97.0766,VALID,0,VALID,19.2738,VALID,149,VALID,0.744141,
2010-02-23, 01:57:04,VALID,918.05,VALID,0,VALID,97.0232,VALID,0.107441,VALID,19.2543,VALID,149,VALID,0.823438,
2010-02-23, 01:58:04,VALID,918.103,VALID,0,VALID,97.0003,VALID,0.107441,VALID,19.2139,VALID,149,VALID,0.623047,
2010-02-23, 01:59:04,VALID,918.079,VALID,0,VALID,96.9851,VALID,0,VALID,19.2348,VALID,149,VALID,0.623828,
2010-02-23, 02:00:04,VALID,918.138,VALID,0,VALID,97.0003,VALID,0.107441,VALID,19.2153,VALID,149,VALID,0.944141,
2010-02-23, 02:01:04,VALID,918.115,VALID,0,VALID,97.0308,VALID,0.107441,VALID,19.2348,VALID,149,VALID,0.941797,
2010-02-23, 02:02:04,VALID,918.099,VALID,0,VALID,97.0537,VALID,0,VALID,19.2543,VALID,149,VALID,1.08047,
2010-02-23, 02:03:04,VALID,918.075,VALID,0,VALID,97.0613,VALID,0,VALID,19.2348,VALID,149,VALID,1.03594,
2010-02-23, 02:04:04,VALID,918.033,VALID,0,VALID,97.0918,VALID,0,VALID,19.2738,VALID,149,VALID,1.34922,
2010-02-23, 02:05:04,VALID,917.995,VALID,0,VALID,97.0613,VALID,0,VALID,19.2738,VALID,149,VALID,0.931641,
2010-02-23, 02:06:04,VALID,917.964,VALID,0,VALID,97.0385,VALID,0,VALID,19.2738,VALID,149,VALID,0.994922,
2010-02-23, 02:07:04,VALID,917.908,VALID,0,VALID,97.0156,VALID,0.107441,VALID,19.2738,VALID,149,VALID,1.34766,
2010-02-23, 02:08:04,VALID,917.924,VALID,0,VALID,97.0232,VALID,0,VALID,19.2738,VALID,149,VALID,1.02578,
2010-02-23, 02:09:04,VALID,917.888,VALID,0,VALID,97.0308,VALID,0,VALID,19.2543,VALID,149,VALID,0.983594,
2010-02-23, 02:10:04,VALID,917.867,VALID,0,VALID,97.0613,VALID,0,VALID,19.2348,VALID,149,VALID,0.807031,
2010-02-23, 02:11:04,VALID,917.84,VALID,0,VALID,97.0766,VALID,0,VALID,19.2153,VALID,149,VALID,0.975,
2010-02-23, 02:12:04,VALID,917.868,VALID,0,VALID,97.0994,VALID,0,VALID,19.2153,VALID,149,VALID,0.780469,
2010-02-23, 02:13:04,VALID,917.856,VALID,0,VALID,97.1071,VALID,0,VALID,19.2153,VALID,149,VALID,1.0207,
2010-02-23, 02:14:04,VALID,917.854,VALID,0,VALID,97.1604,VALID,0,VALID,19.2153,VALID,149,VALID,1.22109,
2010-02-23, 02:15:04,VALID,917.852,VALID,0,VALID,97.1681,VALID,0,VALID,19.2153,VALID,149,VALID,1.3832,
2010-02-23, 02:16:04,VALID,917.863,VALID,0,VALID,97.1681,VALID,0,VALID,19.2153,VALID,149,VALID,0.882031,
2010-02-23, 02:17:04,VALID,917.874,VALID,0,VALID,97.1681,VALID,0.107441,VALID,19.2153,VALID,149,VALID,0.882813,
2010-02-23, 02:18:04,VALID,917.858,VALID,0,VALID,97.1604,VALID,0,VALID,19.2153,VALID,164,VALID,1.11953,
2010-02-23, 02:19:04,VALID,917.851,VALID,0,VALID,97.1452,VALID,0,VALID,19.2153,VALID,164,VALID,0.814062,
2010-02-23, 02:20:04,VALID,917.803,VALID,0,VALID,97.1604,VALID,0,VALID,19.1958,VALID,164,VALID,0.442578,
2010-02-23, 02:21:04,VALID,917.807,VALID,0,VALID,97.1909,VALID,0,VALID,19.2348,VALID,164,VALID,0.391406,
2010-02-23, 02:22:04,VALID,917.739,VALID,0,VALID,97.1833,VALID,0.107441,VALID,19.2153,VALID,164,VALID,0.702344,
2010-02-23, 02:23:04,VALID,917.724,VALID,0,VALID,97.2062,VALID,0.107441,VALID,19.2139,VALID,164,VALID,0.715625,
2010-02-23, 02:24:04,VALID,917.71,VALID,0,VALID,97.2062,VALID,0,VALID,19.2139,VALID,164,VALID,1.01797,
2010-02-23, 02:25:04,VALID,917.674,VALID,0,VALID,97.1986,VALID,0,VALID,19.2543,VALID,164,VALID,0.958984,
2010-02-23, 02:26:04,VALID,917.666,VALID,0,VALID,97.1833,VALID,0.107441,VALID,19.2738,VALID,164,VALID,0.853516,
2010-02-23, 02:27:04,VALID,917.639,VALID,0,VALID,97.1681,VALID,0,VALID,19.2948,VALID,164,VALID,0.620313,
2010-02-23, 02:28:04,VALID,917.609,VALID,0,VALID,97.1376,VALID,0,VALID,19.2738,VALID,164,VALID,0.542969,
2010-02-23, 02:29:04,VALID,917.613,VALID,0,VALID,97.1223,VALID,0,VALID,19.2948,VALID,164,VALID,0.855859,
2010-02-23, 02:30:04,VALID,917.596,VALID,0,VALID,97.1147,VALID,0,VALID,19.2738,VALID,164,VALID,0.675781,
2010-02-23, 02:31:04,VALID,917.61,VALID,0,VALID,97.1071,VALID,0,VALID,19.2738,VALID,164,VALID,0.430078,
2010-02-23, 02:32:04,VALID,917.628,VALID,0,VALID,97.0842,VALID,0,VALID,19.2738,VALID,164,VALID,0.640234,
2010-02-23, 02:33:04,VALID,917.6,VALID,0,VALID,97.0461,VALID,0,VALID,19.2753,VALID,164,VALID,1.10508,
2010-02-23, 02:34:04,VALID,917.618,VALID,0,VALID,97.0308,VALID,0,VALID,19.2543,VALID,164,VALID,1.08047,
2010-02-23, 02:35:04,VALID,917.597,VALID,0,VALID,97.008,VALID,0,VALID,19.2558,VALID,164,VALID,0.848047,
2010-02-23, 02:36:04,VALID,917.59,VALID,0,VALID,96.9851,VALID,0.107441,VALID,19.2348,VALID,164,VALID,0.725781,
2010-02-23, 02:37:04,VALID,917.592,VALID,0,VALID,96.9851,VALID,0,VALID,19.2348,VALID,179,VALID,1.09883,
2010-02-23, 02:38:04,VALID,917.593,VALID,0,VALID,96.9698,VALID,0,VALID,19.2348,VALID,198,VALID,1.21797,
2010-02-23, 02:39:04,VALID,917.573,VALID,0,VALID,96.9622,VALID,0,VALID,19.2153,VALID,188,VALID,1.1207,
2010-02-23, 02:40:04,VALID,917.554,VALID,0,VALID,96.9622,VALID,0.107441,VALID,19.2153,VALID,199,VALID,0.736719,
2010-02-23, 02:41:04,VALID,917.524,VALID,0,VALID,96.9775,VALID,0,VALID,19.1958,VALID,199,VALID,0.869922,
2010-02-23, 02:42:04,VALID,917.541,VALID,0,VALID,96.9851,VALID,0,VALID,19.1958,VALID,198,VALID,0.556641,
2010-02-23, 02:43:04,VALID,917.508,VALID,0,VALID,97.0232,VALID,0,VALID,19.1958,VALID,198,VALID,0.717188,
2010-02-23, 02:44:04,VALID,917.477,VALID,0,VALID,97.0613,VALID,0,VALID,19.1763,VALID,197,VALID,0.960938,
2010-02-23, 02:45:04,VALID,917.523,VALID,0,VALID,97.0613,VALID,0,VALID,19.1763,VALID,196,VALID,0.805859,
2010-02-23, 02:46:04,VALID,917.53,VALID,0,VALID,97.1071,VALID,0,VALID,19.1763,VALID,196,VALID,0.657031,
2010-02-23, 02:47:04,VALID,917.543,VALID,0,VALID,97.1604,VALID,0.107441,VALID,19.1373,VALID,196,VALID,0.510156,
2010-02-23, 02:48:04,VALID,917.556,VALID,0,VALID,97.1833,VALID,0,VALID,19.1373,VALID,196,VALID,0.858984,
2010-02-23, 02:49:04,VALID,917.546,VALID,0,VALID,97.2138,VALID,0.107441,VALID,19.1178,VALID,130,VALID,1.20313,
2010-02-23, 02:50:04,VALID,917.558,VALID,0,VALID,97.1909,VALID,0,VALID,19.1388,VALID,124,VALID,1.02617,
2010-02-23, 02:51:04,VALID,917.58,VALID,0,VALID,97.2519,VALID,0,VALID,19.1178,VALID,112,VALID,1.61016,
2010-02-23, 02:52:04,VALID,917.61,VALID,0,VALID,97.2519,VALID,0,VALID,19.1178,VALID,104,VALID,1.37031,
2010-02-23, 02:53:04,VALID,917.595,VALID,0,VALID,97.2595,VALID,0,VALID,19.1178,VALID,103,VALID,0.68125,
2010-02-23, 02:54:04,VALID,917.599,VALID,0,VALID,97.29,VALID,0.107441,VALID,19.1164,VALID,95,VALID,1.25352,
2010-02-23, 02:55:04,VALID,917.599,VALID,0,VALID,97.3205,VALID,0.107441,VALID,19.1568,VALID,144,VALID,1.59883,
2010-02-23, 02:56:04,VALID,917.573,VALID,0,VALID,97.3129,VALID,0,VALID,19.1568,VALID,128,VALID,1.27539,
2010-02-23, 02:57:04,VALID,917.564,VALID,0,VALID,97.3281,VALID,0.107441,VALID,19.1763,VALID,126,VALID,1.61563,
2010-02-23, 02:58:04,VALID,917.522,VALID,0,VALID,97.3434,VALID,0.107441,VALID,19.1763,VALID,121,VALID,1.10156,
2010-02-23, 02:59:04,VALID,917.515,VALID,0,VALID,97.3129,VALID,0.107441,VALID,19.1373,VALID,97,VALID,0.980469,
2010-02-23, 03:00:04,VALID,917.495,VALID,0,VALID,97.3205,VALID,0.107441,VALID,19.1359,VALID,143,VALID,1.18125,
2010-02-23, 03:01:04,VALID,917.471,VALID,0,VALID,97.3358,VALID,0,VALID,19.1373,VALID,143,VALID,0.895312,
2010-02-23, 03:02:04,VALID,917.469,VALID,0,VALID,97.3281,VALID,0.107441,VALID,19.1178,VALID,143,VALID,1.05742,
2010-02-23, 03:03:04,VALID,917.417,VALID,0,VALID,97.3358,VALID,0,VALID,19.0983,VALID,143,VALID,0.907812,
2010-02-23, 03:04:04,VALID,917.415,VALID,0,VALID,97.3586,VALID,0.107441,VALID,19.0983,VALID,144,VALID,1.2293,
2010-02-23, 03:05:04,VALID,917.416,VALID,0,VALID,97.4044,VALID,0,VALID,19.0969,VALID,129,VALID,1.39766,
2010-02-23, 03:06:04,VALID,917.414,VALID,0,VALID,97.412,VALID,0,VALID,19.1373,VALID,138,VALID,1.62969,
2010-02-23, 03:07:04,VALID,917.392,VALID,0,VALID,97.3968,VALID,0.107441,VALID,19.1568,VALID,132,VALID,1.68203,
2010-02-23, 03:08:04,VALID,917.404,VALID,0,VALID,97.3815,VALID,0.107441,VALID,19.1568,VALID,128,VALID,1.56094,
2010-02-23, 03:09:04,VALID,917.389,VALID,0,VALID,97.3815,VALID,0.107441,VALID,19.1359,VALID,128,VALID,1.43398,
2010-02-23, 03:10:04,VALID,917.398,VALID,0,VALID,97.3739,VALID,0,VALID,19.1973,VALID,132,VALID,1.78008,
2010-02-23, 03:11:04,VALID,917.377,VALID,0,VALID,97.3434,VALID,0,VALID,19.2168,VALID,135,VALID,1.55156,
2010-02-23, 03:12:04,VALID,917.399,VALID,0,VALID,97.3281,VALID,0.107441,VALID,19.1763,VALID,146,VALID,1.35898,
2010-02-23, 03:13:04,VALID,917.42,VALID,0,VALID,97.3205,VALID,0.107441,VALID,19.1958,VALID,118,VALID,0.897656,
2010-02-23, 03:14:04,VALID,917.42,VALID,0,VALID,97.2977,VALID,0,VALID,19.1958,VALID,143,VALID,1.3375,
2010-02-23, 03:15:04,VALID,917.447,VALID,0,VALID,97.3205,VALID,0,VALID,19.1958,VALID,136,VALID,1.70352,
2010-02-23, 03:16:04,VALID,917.432,VALID,0,VALID,97.2824,VALID,0.107441,VALID,19.2153,VALID,151,VALID,1.70742,
2010-02-23, 03:17:04,VALID,917.471,VALID,0,VALID,97.2977,VALID,0.107441,VALID,19.1958,VALID,126,VALID,0.641406,
2010-02-23, 03:18:04,VALID,917.459,VALID,0,VALID,97.29,VALID,0.107441,VALID,19.1958,VALID,147,VALID,1.06523,
2010-02-23, 03:19:04,VALID,917.448,VALID,0,VALID,97.29,VALID,0,VALID,19.1958,VALID,136,VALID,1.30664,
2010-02-23, 03:20:04,VALID,917.423,VALID,0,VALID,97.2748,VALID,0.107441,VALID,19.1749,VALID,125,VALID,1.05781,
2010-02-23, 03:21:04,VALID,917.397,VALID,0,VALID,97.2672,VALID,0.107441,VALID,19.1763,VALID,125,VALID,1.13984,
2010-02-23, 03:22:04,VALID,917.418,VALID,0,VALID,97.2748,VALID,0.107441,VALID,19.1763,VALID,125,VALID,1.32148,
2010-02-23, 03:23:04,VALID,917.41,VALID,0,VALID,97.2672,VALID,0.107441,VALID,19.1763,VALID,137,VALID,1.17344,
2010-02-23, 03:24:04,VALID,917.418,VALID,0,VALID,97.2443,VALID,0,VALID,19.1763,VALID,127,VALID,1.4125,
2010-02-23, 03:25:04,VALID,917.436,VALID,0,VALID,97.2519,VALID,0.107441,VALID,19.1568,VALID,118,VALID,1.68945,
2010-02-23, 03:26:04,VALID,917.476,VALID,0,VALID,97.2443,VALID,0,VALID,19.1568,VALID,134,VALID,1.8582,
2010-02-23, 03:27:04,VALID,917.478,VALID,0,VALID,97.2595,VALID,0.107441,VALID,19.1568,VALID,121,VALID,1.06914,
2010-02-23, 03:28:04,VALID,917.486,VALID,0,VALID,97.29,VALID,0,VALID,19.1178,VALID,108,VALID,0.667969,
2010-02-23, 03:29:04,VALID,917.486,VALID,0,VALID,97.2443,VALID,0,VALID,19.1373,VALID,108,VALID,0.870703,
2010-02-23, 03:30:04,VALID,917.456,VALID,0,VALID,97.2748,VALID,0,VALID,19.0983,VALID,101,VALID,0.515625,
2010-02-23, 03:31:04,VALID,917.444,VALID,0,VALID,97.3053,VALID,0.107441,VALID,19.0983,VALID,102,VALID,0.376953,
2010-02-23, 03:32:04,VALID,917.43,VALID,0,VALID,97.29,VALID,0,VALID,19.0983,VALID,145,VALID,0.892187,
2010-02-23, 03:33:04,VALID,917.404,VALID,0,VALID,97.2748,VALID,0,VALID,19.0983,VALID,152,VALID,0.308594,
2010-02-23, 03:34:04,VALID,917.408,VALID,0,VALID,97.2824,VALID,0,VALID,19.0788,VALID,152,VALID,0.0105469,
2010-02-23, 03:35:04,VALID,917.385,VALID,0,VALID,97.2519,VALID,0,VALID,19.0593,VALID,109,VALID,1.3332,
2010-02-23, 03:36:04,VALID,917.375,VALID,0,VALID,97.2595,VALID,0,VALID,19.0398,VALID,110,VALID,0.427344,
2010-02-23, 03:37:04,VALID,917.403,VALID,0,VALID,97.2977,VALID,0,VALID,19.0413,VALID,110,VALID,0.166797,
2010-02-23, 03:38:04,VALID,917.387,VALID,0,VALID,97.2595,VALID,0,VALID,19.0218,VALID,110,VALID,0.135547,
2010-02-23, 03:39:04,VALID,917.404,VALID,0,VALID,97.2595,VALID,0,VALID,19.0023,VALID,110,VALID,0.00585938,
2010-02-23, 03:40:04,VALID,917.376,VALID,0,VALID,97.2824,VALID,0,VALID,18.9828,VALID,110,VALID,0,
2010-02-23, 03:41:04,VALID,917.378,VALID,0,VALID,97.2977,VALID,0,VALID,18.9619,VALID,110,VALID,0,